[[{"header":{"parameterUnit":"m.s-1","parameterCategory":1,"la1":30.2991,"la2":30.254,"lo1":-89.0895,"lo2":-89.0444,"dy":0.0017,"dx":0.0017,"nx":28,"ny":28,"refTime":"2026-02-13T03:00:00:Z","depth":0,"parameterNumber":2,"parameterNumberName":"U-component_of_WINDS"},"data":[0,0,0,0,0,0,0,0,0,0,0,0,0,0,0,0,0,0,0,0,0,0,0,0,0,0,0,0,0,0,0,0,0,0,0,0,0,0,0,0,0,0,0,0,0,0,0,0,0,0,0,0,0,0,0,0,0,0,1.202,1.2021,0,1.2092,1.2093,1.2094,1.2109,1.2108,1.2108,1.2107,1.2182,1.2184,1.2187,0,0,0,0,0,0,0,0,0,0,0,0,0,1.1893,1.1895,1.202,1.2021,1.2022,1.2092,1.2093,1.2094,1.2109,1.2108,1.2108,1.2107,1.2181,1.2184,1.2187,0,0,0,0,0,0,0,0,0,0,0,0,0,1.1955,1.1896,1.202,1.2038,1.204,1.2092,1.2093,1.2095,1.2109,1.2108,1.2107,1.2107,1.218,1.2184,1.2187,1.2227,0,0,1.2199,1.2201,0,0,0,0,0,0,0,0,1.1951,1.1959,1.2034,1.2036,1.2039,1.2091,1.2076,1.2139,1.2109,1.2083,1.2107,1.2106,1.2152,1.2158,1.2174,1.2231,1.2234,1.2199,1.2201,1.2203,1.2204,0,0,0,0,0,0,0,1.1947,1.1956,1.2049,1.2035,1.2038,1.2041,1.2049,1.2088,1.2121,1.2085,1.2086,1.2095,1.2153,1.217,1.2176,1.2235,1.2199,1.2202,1.2205,1.2206,1.2326,1.2326,0,0,0,0,0,0,1.194,1.1953,1.2046,1.2051,1.1992,1.2044,1.2053,1.2075,1.2121,1.2127,1.2095,1.2095,1.2164,1.2171,1.2178,1.2226,1.2203,1.2207,1.2209,1.2325,1.2326,1.2327,0,0,0,0,0,0,1.1937,1.1948,1.2043,1.2002,1.2014,1.2047,1.2072,1.2077,1.2093,1.2129,1.2135,1.2106,1.2164,1.2173,1.2214,1.2229,1.2208,1.2212,1.2324,1.2325,1.2326,1.2323,0,0,0,0,0,0,1.1933,1.1947,1.1963,1.2002,1.2017,1.2079,1.2073,1.2079,1.21,1.21,1.214,1.2146,1.2164,1.2209,1.2218,1.2234,1.2215,1.2322,1.2324,1.2326,1.2322,1.2324,1.2326,0,0,0,0,0,1.1928,1.196,1.1963,1.1975,1.2037,1.208,1.2088,1.2107,1.2101,1.2117,1.2139,1.2145,1.2226,1.2213,1.2223,1.2241,1.2322,1.2324,1.2326,1.2321,1.2324,1.2326,0,0,0,0,0,0,1.1921,1.1965,1.197,1.2015,1.2043,1.2082,1.2103,1.211,1.214,1.214,1.2162,1.2171,1.2211,1.223,1.2214,1.228,1.2273,1.2278,1.2266,1.2269,1.2271,1.2265,1.2218,0,0,0,0,0,1.1925,1.1956,1.1992,1.2028,1.2042,1.207,1.2089,1.2101,1.2132,1.2144,1.2169,1.2198,1.223,1.2251,1.2282,1.2325,1.2333,1.2342,1.2344,1.2345,1.2348,1.237,1.2374,1.2334,1.2333,1.2333,0,0,1.1933,1.196,1.1979,1.2027,1.2051,1.2082,1.208,1.2113,1.2136,1.2149,1.2189,1.2208,1.2242,1.2284,1.2304,1.2301,1.2361,1.2348,1.2349,1.2351,1.2373,1.2377,1.238,1.2335,1.2335,1.2334,0,0,1.1962,1.1987,1.2019,1.2042,1.2077,1.2095,1.2102,1.214,1.2153,1.2193,1.2203,1.223,1.2285,1.2308,1.2327,1.2363,1.2369,1.2372,1.2383,1.2404,1.2407,1.241,1.2421,1.2425,1.2376,1.2376,1.2376,0,1.1968,1.2015,1.2034,1.2066,1.2087,1.2099,1.2131,1.2152,1.2196,1.2209,1.2206,1.2273,1.2297,1.2343,1.2351,1.2367,1.2375,1.2368,1.2405,1.2408,1.2411,1.2422,1.2426,1.2376,1.2376,1.2376,1.2376,0,1.2018,1.2051,1.2072,1.2113,1.2136,1.2168,1.2191,1.2212,1.2221,1.2239,1.2279,1.2308,1.2344,1.2356,1.2366,1.2403,1.24,1.24,1.2394,1.2415,1.2425,1.243,1.2376,1.2376,1.2376,1.2376,0,0,1.2046,1.2097,1.2104,1.2122,1.2161,1.2186,1.2217,1.2252,1.2268,1.2298,1.2324,1.2369,1.2368,1.239,1.2403,1.2421,1.2445,1.2419,1.242,1.2422,1.2485,1.2484,1.2489,1.2449,1.245,1.2451,1.2482,0,1.208,1.2137,1.2154,1.2201,1.223,1.2242,1.2269,1.2295,1.2312,1.2338,1.2357,1.2388,1.2386,1.2399,1.2418,1.2438,1.2458,1.2436,1.2473,1.2474,1.2463,1.2495,1.2494,1.2522,1.2487,1.2487,1.2488,0,1.2127,1.2156,1.2206,1.2239,1.2252,1.2276,1.2308,1.2334,1.2363,1.2374,1.2396,1.2407,1.2439,1.243,1.2474,1.2459,1.2474,1.2487,1.2488,1.2492,1.2482,1.2498,1.2532,1.2535,1.2495,1.2494,1.2494,0,1.214,1.2192,1.2228,1.2243,1.2283,1.2299,1.2317,1.2345,1.2364,1.2392,1.2405,1.2436,1.2454,1.2477,1.2496,1.2488,1.2537,1.253,1.2546,1.2545,1.2556,1.2555,1.2591,1.2567,1.2567,1.2567,1.2567,0,1.2175,1.2205,1.2234,1.2256,1.2289,1.2309,1.2341,1.2358,1.2383,1.2408,1.242,1.2443,1.2466,1.2492,1.2506,1.2539,1.2547,1.2556,1.2559,1.2555,1.2553,1.2565,1.2563,1.2568,1.2568,1.2568,1.2567,0,1.2196,1.2217,1.2257,1.2291,1.23,1.2323,1.2352,1.2373,1.2389,1.2421,1.2429,1.2455,1.2486,1.2506,1.2546,1.2556,1.2591,1.2594,1.2581,1.2582,1.2596,1.2594,1.2641,1.2647,1.262,1.262,1.262,0,1.2217,1.224,1.2276,1.2293,1.231,1.2339,1.2358,1.2377,1.2397,1.243,1.2447,1.2478,1.2504,1.2553,1.2575,1.2604,1.2608,1.2622,1.2613,1.2606,1.2607,1.2605,1.2607,1.2624,1.2624,1.2624,1.2624,0,1.225,1.2259,1.2287,1.2317,1.234,1.2365,1.239,1.2404,1.2427,1.2448,1.2479,1.2499,1.2539,1.2569,1.26,1.2617,1.2624,1.2627,1.2632,1.2627,1.2618,1.2622,1.2584,1.2626,1.2626,1.2626,1.2626,1.2625,1.2271,1.2291,1.2319,1.2349,1.237,1.2392,1.2413,1.2432,1.2459,1.2492,1.2502,1.2534,1.256,1.2603,1.262,1.2645,1.2644,1.2651,1.2653,1.2654,1.2653,1.2614,1.2651,1.2651,1.2651,1.2651,1.2651,0,1.2304,1.2323,1.235,1.2384,1.2407,1.2411,1.2439,1.2457,1.2485,1.251,1.2534,1.2569,1.2598,1.2622,1.2651,1.2666,1.267,1.2673,1.2672,1.2676,1.2654,1.2646,1.267,1.267,1.267,1.267,1.267,1.267,1.2324,1.2358,1.237,1.2413,1.2431,1.2463,1.2478,1.2498,1.2517,1.2556,1.258,1.2595,1.2618,1.2649,1.2676,1.2682,1.2692,1.2694,1.2701,1.268,1.2678,1.2675,1.2668,1.2696,1.2696,1.2721,1.2721,1.2721]},{"header":{"parameterUnit":"m.s-1","parameterCategory":1,"la1":30.2991,"la2":30.254,"lo1":-89.0895,"lo2":-89.0444,"dy":0.0017,"dx":0.0017,"nx":28,"ny":28,"refTime":"2026-02-13T03:00:00:Z","depth":0,"parameterNumber":3,"parameterNumberName":"V-component_of_WINDS"},"data":[0,0,0,0,0,0,0,0,0,0,0,0,0,0,0,0,0,0,0,0,0,0,0,0,0,0,0,0,0,0,0,0,0,0,0,0,0,0,0,0,0,0,0,0,0,0,0,0,0,0,0,0,0,0,0,0,0,0,2.1794,2.1794,0,2.1814,2.1814,2.1814,2.1846,2.1846,2.1847,2.1848,2.1866,2.1866,2.1866,0,0,0,0,0,0,0,0,0,0,0,0,0,2.1781,2.1781,2.1794,2.1794,2.1794,2.1814,2.1814,2.1814,2.1846,2.1846,2.1847,2.1848,2.1866,2.1866,2.1866,0,0,0,0,0,0,0,0,0,0,0,0,0,2.1792,2.1781,2.1794,2.1812,2.1814,2.1814,2.1814,2.1814,2.1846,2.1846,2.1847,2.1848,2.1866,2.1866,2.1866,2.1848,0,0,2.1865,2.1865,0,0,0,0,0,0,0,0,2.1792,2.1793,2.1809,2.1811,2.1813,2.1828,2.1816,2.1825,2.1845,2.1834,2.1848,2.1849,2.1852,2.1854,2.1855,2.1848,2.1849,2.1865,2.1865,2.1865,2.1865,0,0,0,0,0,0,0,2.1791,2.1792,2.1802,2.181,2.1812,2.1819,2.1822,2.1818,2.1838,2.1835,2.1837,2.1839,2.1854,2.1855,2.1856,2.185,2.1865,2.1865,2.1865,2.1865,2.1828,2.1827,0,0,0,0,0,0,2.1788,2.1791,2.1801,2.1802,2.1805,2.1819,2.1822,2.1822,2.1838,2.1841,2.1838,2.1841,2.1855,2.1856,2.1857,2.1836,2.1865,2.1865,2.1865,2.1829,2.1828,2.1827,0,0,0,0,0,0,2.1787,2.1788,2.18,2.1797,2.18,2.1818,2.1819,2.1822,2.1824,2.1841,2.1844,2.1836,2.1856,2.1857,2.185,2.1837,2.1865,2.1865,2.183,2.1829,2.1828,2.1795,0,0,0,0,0,0,2.1787,2.1788,2.1782,2.1797,2.18,2.1793,2.1818,2.1822,2.1824,2.1827,2.184,2.1843,2.1856,2.185,2.185,2.1838,2.1865,2.1831,2.183,2.1828,2.1797,2.1792,2.1789,0,0,0,0,0,2.1786,2.1771,2.1781,2.1782,2.1792,2.1792,2.1794,2.181,2.1823,2.1816,2.1827,2.1842,2.1839,2.1849,2.1849,2.1837,2.1832,2.183,2.1828,2.1799,2.1793,2.1789,0,0,0,0,0,0,2.1753,2.1774,2.1785,2.1775,2.1782,2.1798,2.179,2.1804,2.1807,2.181,2.183,2.1832,2.1822,2.1829,2.184,2.182,2.1838,2.1836,2.1816,2.181,2.1806,2.1804,2.1865,0,0,0,0,0,2.1745,2.1744,2.1762,2.1751,2.1754,2.1771,2.1772,2.1784,2.1792,2.1795,2.1805,2.1812,2.1812,2.1812,2.1813,2.1798,2.1801,2.179,2.1786,2.1782,2.178,2.1772,2.1767,2.182,2.182,2.182,0,0,2.1727,2.1738,2.1736,2.1745,2.1751,2.1749,2.1774,2.1771,2.1769,2.1794,2.1788,2.1796,2.1804,2.1793,2.1789,2.1799,2.1766,2.178,2.1777,2.1776,2.1769,2.1764,2.176,2.1819,2.1819,2.1819,0,0,2.1694,2.1703,2.1695,2.1701,2.1712,2.1723,2.1721,2.1736,2.1742,2.1736,2.1755,2.1753,2.1754,2.1759,2.1761,2.173,2.1744,2.173,2.1707,2.1699,2.1695,2.1692,2.168,2.1675,2.1728,2.1728,2.1728,0,2.1671,2.1669,2.1688,2.1684,2.1687,2.1711,2.1702,2.1707,2.1717,2.1718,2.1729,2.1729,2.1737,2.1727,2.1719,2.1721,2.1719,2.1728,2.1694,2.1691,2.1688,2.1677,2.1672,2.1726,2.1726,2.1726,2.1726,0,2.1639,2.1638,2.163,2.164,2.1642,2.1635,2.1653,2.1652,2.1664,2.1675,2.1668,2.1678,2.1681,2.168,2.1692,2.1672,2.1677,2.1691,2.171,2.1681,2.1671,2.1667,2.1723,2.1724,2.1724,2.1725,0,0,2.1585,2.1606,2.1603,2.1607,2.1621,2.1619,2.1614,2.1618,2.1617,2.1623,2.1618,2.1618,2.1631,2.1633,2.1646,2.1639,2.1613,2.1654,2.1654,2.1645,2.1591,2.158,2.1575,2.1623,2.1622,2.1621,2.159,0,2.1554,2.1546,2.1564,2.1551,2.155,2.1572,2.1567,2.1575,2.1584,2.1584,2.1594,2.1594,2.1611,2.1613,2.1607,2.1617,2.1602,2.162,2.1617,2.1617,2.1614,2.157,2.1558,2.1528,2.1586,2.1585,2.1585,0,2.1517,2.1522,2.1509,2.1523,2.1523,2.1519,2.1523,2.1523,2.1532,2.1539,2.1542,2.1557,2.1552,2.157,2.1563,2.1575,2.1575,2.158,2.1579,2.1579,2.1599,2.1567,2.1519,2.1514,2.1579,2.158,2.158,0,2.1477,2.1481,2.1474,2.1477,2.1494,2.149,2.1496,2.1506,2.1507,2.1511,2.1512,2.1515,2.1517,2.1518,2.1533,2.1546,2.1524,2.1544,2.1529,2.1529,2.1523,2.1523,2.1472,2.1524,2.1524,2.1524,2.1524,0,2.144,2.1432,2.1457,2.1452,2.1443,2.1463,2.1453,2.1461,2.147,2.1467,2.1487,2.1483,2.1504,2.1502,2.1514,2.1506,2.1506,2.1512,2.1515,2.1509,2.1509,2.1509,2.1511,2.1523,2.1523,2.1523,2.1524,0,2.1395,2.1411,2.1405,2.1421,2.1425,2.1417,2.1431,2.1427,2.1438,2.1434,2.1434,2.1451,2.1451,2.1466,2.1469,2.1477,2.1463,2.147,2.146,2.1462,2.1446,2.1447,2.1394,2.1388,2.1444,2.1443,2.1443,0,2.137,2.1364,2.1379,2.1379,2.1385,2.1384,2.1386,2.1405,2.1406,2.1415,2.141,2.1411,2.1413,2.1411,2.1423,2.1425,2.1432,2.1413,2.1432,2.1427,2.1431,2.1431,2.143,2.1409,2.1408,2.1408,2.1407,0,2.1323,2.1332,2.1334,2.1338,2.134,2.1344,2.135,2.1348,2.1369,2.1368,2.1369,2.137,2.1373,2.1374,2.1378,2.1384,2.1398,2.1401,2.1398,2.1392,2.1386,2.1388,2.1448,2.1402,2.1403,2.1403,2.1403,2.1403,2.1286,2.1282,2.1293,2.1294,2.13,2.1305,2.1302,2.1313,2.1314,2.1318,2.1329,2.1327,2.1336,2.1343,2.1348,2.1346,2.1355,2.135,2.1349,2.1347,2.1344,2.1387,2.1347,2.1347,2.1347,2.1347,2.1347,0,2.124,2.1248,2.125,2.1257,2.1258,2.1273,2.128,2.1279,2.1278,2.1284,2.1286,2.1286,2.1287,2.1299,2.1301,2.1298,2.1304,2.1297,2.1297,2.1298,2.1336,2.1338,2.1292,2.1292,2.1292,2.1292,2.1292,2.1292,2.1216,2.121,2.1219,2.1216,2.1224,2.1223,2.1225,2.1229,2.1235,2.1234,2.1235,2.1244,2.1252,2.1255,2.1257,2.126,2.126,2.125,2.1256,2.129,2.1296,2.1301,2.1303,2.125,2.125,2.1219,2.1218,2.1218]}]]